INMARSAT 3-F3

Last updated on Thu Jul 03 2025 00:02:44 GMT+0000 (Coordinated Universal Time)

1 24674U 96070A 25182.78891179 .00000136 00000+0 00000+0 0 9991 2 24674 9.5564 52.9268 0003569 67.8773 121.3324 0.99991138104401
UTC large
Height (km)
Speed (km/s)
/
Latitude / Longitude
Inclination (degrees)
Orbital Period (minutes)
Azimuth
Elevation
Range (km)
Doppler Factor

Next 0 passes for location: London (51.5072 / 0.1276)

Sorry there are no passes over London.